Location: Capelle
(50.3413°N, 1.9974°E)
Time: 07:23:03
(UTC+00:00)

SMAP - Pass Details

Date: 12 January 2026
Orbit: 682 x 683 km, 98.1° (Epoch: 19 February)

Event Time Altitude Azimuth Distance (km) Brightness Sun altitude
Rises 17:33:34 0° 179° (S) 3,034 6.6 -12.3°
Reaches altitude 10° 17:35:52 10° 184° (S) 2,124 5.9 -12.7°
Maximum altitude 17:40:22 50° 260° (W) 871 4.1 -13.4°
Drops below altitude 10° 17:44:56 10° 337° (NNW) 2,140 5.7 -14.0°
Sets 17:47:15 0° 342° (NNW) 3,061 6.4 -14.4°
